1488211200.05,24361,11.44,73048.3,-3.17,-15.63,-12.97,0,*5B
1488211201.29,24362,11.5,73052.5,-3.17,-15.63,-12.97,0,*58
1488211202.55,24363,11.5,73054.5,-3.13,-15.53,-12.83,0,*5B
1488211203.78,24364,11.5,73052.5,-3.17,-15.63,-12.89,0,*51
1488211205.04,24365,11.5,73052.8,-3.17,-15.57,-12.97,0,*58
1488211206.29,24366,11.5,73058.8,-3.13,-15.53,-12.83,0,*5E
1488211207.55,24367,11.5,73060.0,-3.17,-15.57,-12.89,0,*55
1488211208.79,24368,11.5,73064.5,-3.17,-15.63,-12.89,0,*5D
1488211210.04,24369,11.5,73062.8,-3.17,-15.57,-12.97,0,*54
1488211211.28,24370,11.5,73060.0,-3.17,-15.63,-12.89,0,*54
1488211212.51,24371,11.5,73058.0,-3.17,-15.49,-12.89,0,*5D
1488211213.74,24372,11.5,73052.8,-3.19,-15.43,-12.89,0,*5A
1488211215.01,24373,11.5,73056.0,-3.17,-15.43,-12.89,0,*55
1488211216.24,24374,11.44,73060.3,-3.17,-15.49,-12.89,0,*58
1488211217.52,24375,11.5,73068.8,-3.13,-15.43,-12.79,0,*58
1488211218.81,24376,11.5,73064.8,-3.17,-15.43,-12.83,0,*5A
1488211220.1,24377,11.5,73068.0,-3.13,-15.39,-12.71,0,*5F
1488211221.38,24378,11.5,73070.3,-3.17,-15.39,-12.75,0,*50
1488211222.65,24379,11.5,73052.0,-3.17,-15.29,-12.71,0,*54
1488211223.94,24380,11.5,73056.0,-3.17,-15.39,-12.71,0,*53
1488211225.2,24381,11.5,73054.5,-3.17,-15.29,-12.75,0,*57
1488211226.48,24382,11.5,73048.3,-3.17,-15.43,-12.83,0,*51
1488211227.76,24383,11.5,73052.0,-3.17,-15.43,-12.83,0,*50
1488211229.05,24384,11.44,73054.8,-3.17,-15.43,-12.83,0,*57
1488211230.3,24385,11.5,73060.0,-3.17,-15.49,-12.83,0,*5C
1488211231.56,24386,11.5,73054.8,-3.17,-15.49,-12.83,0,*5F
1488211232.82,24387,11.5,73056.8,-3.17,-15.49,-12.83,0,*5E
1488211234.07,24388,11.5,73048.8,-3.17,-15.49,-12.83,0,*51
1488211235.33,24389,11.5,73052.5,-3.19,-15.43,-12.83,0,*54
1488211236.59,24390,11.44,73050.8,-3.19,-15.43,-12.75,0,*55
1488211237.86,24391,11.5,73054.0,-3.19,-15.43,-12.75,0,*54
1488211239.12,24392,11.5,73056.0,-3.19,-15.43,-12.83,0,*5E
1488211240.4,24393,11.5,73058.3,-3.21,-15.35,-12.75,0,*5C
1488211241.64,24394,11.44,73054.0,-3.19,-15.29,-12.75,0,*5D
1488211242.93,24395,11.5,73052.5,-3.21,-15.35,-12.71,0,*5E
1488211244.17,24396,11.5,73050.3,-3.19,-15.29,-12.57,0,*5F
1488211245.42,24397,11.44,73050.0,-3.19,-15.39,-12.61,0,*5A
1488211246.69,24398,11.5,73054.3,-3.19,-15.43,-12.75,0,*5D
1488211247.97,24399,11.44,73048.3,-3.17,-15.43,-12.83,0,*5B
1488211249.23,24400,11.44,73052.0,-3.17,-15.49,-12.83,0,*56
1488211250.51,24401,11.44,73056.8,-3.17,-15.43,-12.83,0,*5D
1488211251.77,24402,11.5,73062.0,-3.19,-15.43,-12.83,0,*50
1488211253.0,24403,11.5,73060.3,-3.19,-15.49,-12.83,0,*5B
1488211254.26,24404,11.44,73058.8,-3.19,-15.43,-12.75,0,*5F
1488211255.49,24405,11.44,73052.3,-3.19,-15.49,-12.83,0,*5D
1488211256.75,24406,11.44,73058.5,-3.19,-15.43,-12.83,0,*54
1488211258.01,24407,11.5,73062.3,-3.19,-15.43,-12.83,0,*55
1488211259.27,24408,11.44,73062.8,-3.19,-15.43,-12.83,0,*5A
1488211260.51,24409,11.44,73068.3,-3.19,-15.29,-12.75,0,*5E
1488211261.8,24410,11.44,73074.3,-3.21,-15.43,-12.79,0,*5D
1488211263.04,24411,11.44,73074.8,-3.19,-15.29,-12.75,0,*57
1488211264.3,24412,11.5,73072.8,-3.19,-15.39,-12.75,0,*55
1488211265.54,24413,11.44,73072.8,-3.19,-15.29,-12.75,0,*55
1488211266.83,24414,11.44,73070.0,-3.21,-15.43,-12.75,0,*55
1488211268.11,24415,11.5,73068.8,-3.17,-15.39,-12.83,0,*55
1488211269.37,24416,11.44,73068.8,-3.19,-15.43,-12.83,0,*55
1488211270.6,24417,11.44,73064.8,-3.19,-15.49,-12.83,0,*5E
1488211271.83,24418,11.44,73070.0,-3.19,-15.49,-12.83,0,*51
1488211273.09,24419,11.5,73068.3,-3.19,-15.39,-12.83,0,*57
1488211274.35,24420,11.44,73060.5,-3.19,-15.39,-12.83,0,*5D
1488211275.56,24421,11.5,73056.0,-3.19,-15.49,-12.89,0,*51
1488211276.79,24422,11.5,73056.8,-3.19,-15.43,-12.89,0,*58
1488211278.03,24423,11.44,73048.5,-3.21,-15.49,-12.89,0,*58
1488211279.26,24424,11.44,73048.0,-3.19,-15.49,-12.83,0,*5E
1488211280.49,24425,11.44,73046.8,-3.19,-15.49,-12.83,0,*5F
1488211281.7,24426,11.44,73046.5,-3.19,-15.49,-12.89,0,*56
1488211282.94,24427,11.5,73044.5,-3.21,-15.53,-12.89,0,*57
1488211284.19,24428,11.44,73040.8,-3.21,-15.49,-13.01,0,*52
1488211285.4,24429,11.44,73040.0,-3.19,-15.49,-12.97,0,*56
1488211286.61,24430,11.44,73036.3,-3.19,-15.49,-12.89,0,*51
1488211287.84,24431,11.5,73038.8,-3.19,-15.57,-12.89,0,*5F
1488211289.05,24432,11.44,73034.5,-3.19,-15.49,-12.89,0,*53
1488211290.26,24433,11.44,73034.0,-3.19,-15.49,-12.89,0,*52
1488211291.47,24434,11.44,73032.3,-3.19,-15.53,-12.93,0,*55
1488211292.72,24435,11.44,73040.5,-3.21,-15.53,-13.01,0,*55
1488211293.93,24436,11.5,73054.8,-3.19,-15.49,-12.97,0,*58
1488211295.17,24437,11.44,73054.8,-3.21,-15.63,-12.93,0,*5E
1488211296.4,24438,11.44,73056.0,-3.21,-15.67,-12.93,0,*55
1488211297.64,24439,11.5,73062.5,-3.21,-15.53,-12.93,0,*53
1488211298.88,24440,11.44,73056.3,-3.21,-15.53,-12.93,0,*5D
1488211300.12,24441,11.44,73052.0,-3.21,-15.49,-12.93,0,*57
1488211301.35,24442,11.44,73052.0,-3.21,-15.53,-12.93,0,*5F
1488211302.61,24443,11.44,73046.5,-3.21,-15.63,-13.01,0,*57
1488211303.86,24444,11.44,73044.0,-3.21,-15.63,-13.01,0,*50
1488211305.12,24445,11.44,73042.0,-3.21,-15.63,-13.01,0,*51
1488211306.37,24446,11.5,73052.0,-3.21,-15.63,-13.01,0,*52
1488211307.63,24447,11.44,73060.3,-3.21,-15.67,-13.01,0,*57
1488211308.88,24448,11.44,73062.3,-3.21,-15.63,-13.01,0,*5C
1488211310.14,24449,11.44,73062.3,-3.21,-15.53,-13.01,0,*5E
1488211311.38,24450,11.44,73060.0,-3.21,-15.63,-12.93,0,*5F
1488211312.58,24451,11.44,73058.3,-3.23,-15.63,-12.93,0,*5C
1488211313.79,24452,11.44,73044.5,-3.23,-15.53,-12.93,0,*5C
1488211315.03,24453,11.5,73054.5,-3.21,-15.49,-12.93,0,*54
1488211316.28,24454,11.44,73054.5,-3.21,-15.63,-13.01,0,*51
1488211317.52,24455,11.44,73056.3,-3.21,-15.53,-12.93,0,*59
1488211318.76,24456,11.44,73062.8,-3.21,-15.53,-12.93,0,*5A
1488211320.02,24457,11.44,73058.5,-3.21,-15.53,-13.01,0,*51
1488211321.22,24458,11.44,73054.3,-3.23,-15.49,-12.93,0,*5D
1488211322.46,24459,11.44,73050.0,-3.21,-15.49,-12.93,0,*5E
1488211323.69,24460,11.44,73046.8,-3.21,-15.49,-12.93,0,*54
1488211324.9,24461,11.44,73056.0,-3.19,-15.49,-12.93,0,*5E
1488211326.14,24462,11.44,73052.3,-3.21,-15.53,-12.93,0,*5D
1488211327.37,24463,11.44,73036.8,-3.21,-15.49,-12.93,0,*57
1488211328.61,24464,11.44,73032.0,-3.21,-15.53,-12.93,0,*5B
1488211329.87,24465,11.44,73064.0,-3.21,-15.49,-13.01,0,*5B
1488211331.1,24466,11.44,73056.3,-3.21,-15.49,-12.89,0,*59
1488211332.34,24467,11.44,73036.5,-3.21,-15.53,-12.93,0,*58
1488211333.59,24468,11.44,73052.0,-3.21,-15.53,-13.01,0,*5D
1488211334.8,24469,11.44,73054.3,-3.23,-15.53,-12.93,0,*54
1488211336.06,24470,11.44,73054.8,-3.25,-15.57,-12.97,0,*5A
1488211337.32,24471,11.44,73058.0,-3.25,-15.57,-12.97,0,*5B
1488211338.53,24472,11.44,73052.8,-3.23,-15.53,-12.93,0,*5E
1488211339.73,24473,11.44,73048.5,-3.23,-15.53,-12.93,0,*5F
1488211340.99,24474,11.44,73048.5,-3.21,-15.63,-13.01,0,*53
1488211342.24,24475,11.44,73050.5,-3.21,-15.63,-13.01,0,*52
1488211343.45,24476,11.44,73050.0,-3.23,-15.63,-13.07,0,*55
1488211344.67,24477,11.44,73052.3,-3.23,-15.67,-13.01,0,*56
1488211345.9,24478,11.44,73052.0,-3.25,-15.67,-13.07,0,*59
1488211347.12,24479,11.44,73050.3,-3.23,-15.67,-13.01,0,*58
1488211348.35,24480,11.44,73052.8,-3.25,-15.67,-13.07,0,*5E
1488211349.58,24481,11.44,73052.3,-3.23,-15.63,-13.01,0,*5B
1488211350.78,24482,11.44,73046.0,-3.23,-15.53,-12.93,0,*51
1488211352.01,24483,11.44,73050.0,-3.23,-15.53,-13.01,0,*5A
1488211353.25,24484,11.44,73056.5,-3.21,-15.63,-12.93,0,*56
1488211354.46,24485,11.44,73054.5,-3.23,-15.53,-12.93,0,*56
1488211355.69,24486,11.44,73056.8,-3.25,-15.53,-12.97,0,*57
1488211356.9,24487,11.44,73044.8,-3.23,-15.53,-12.93,0,*54
1488211358.13,24488,11.44,73030.5,-3.23,-15.53,-13.01,0,*51
1488211359.33,24489,11.44,73030.5,-3.23,-15.75,-13.07,0,*52
1488211360.53,24490,11.44,73040.0,-3.23,-15.67,-13.07,0,*59
1488211361.74,24491,11.44,73054.3,-3.23,-15.75,-13.07,0,*5B
1488211362.99,24492,11.44,73048.3,-3.25,-15.81,-13.07,0,*55
1488211364.2,24493,11.44,73050.0,-3.23,-15.75,-13.07,0,*59
1488211365.4,24494,11.44,73028.5,-3.23,-15.67,-13.15,0,*5E
1488211366.6,24495,11.44,73022.5,-3.23,-15.67,-13.15,0,*5F
1488211367.83,24496,11.44,73028.8,-3.25,-15.67,-13.11,0,*5E
1488211369.09,24497,11.44,73054.5,-3.25,-15.81,-13.19,0,*5F
1488211370.35,24498,11.44,73054.3,-3.25,-15.57,-12.97,0,*5C
1488211371.6,24499,11.44,73062.3,-3.25,-15.57,-12.97,0,*5D
1488211372.83,24500,11.44,73058.8,-3.23,-15.53,-13.01,0,*50
1488211374.06,24501,11.44,73054.3,-3.25,-15.49,-12.93,0,*56
1488211375.27,24502,11.44,73054.5,-3.23,-15.49,-12.89,0,*58
1488211376.52,24503,11.44,73056.0,-3.25,-15.57,-12.97,0,*5F
1488211377.73,24504,11.44,73046.8,-3.23,-15.49,-12.89,0,*5E
1488211378.99,24505,11.44,73040.5,-3.25,-15.49,-12.83,0,*53
1488211380.22,24506,11.44,73038.3,-3.25,-15.49,-12.93,0,*51
1488211381.45,24507,11.44,73028.5,-3.25,-15.53,-12.93,0,*5B
1488211382.66,24508,11.44,73028.5,-3.23,-15.53,-12.93,0,*52
1488211383.89,24509,11.44,73026.8,-3.23,-15.53,-13.01,0,*59
1488211385.12,24510,11.44,73028.8,-3.23,-15.53,-13.01,0,*51
1488211386.35,24511,11.44,73028.3,-3.25,-15.71,-13.19,0,*5F
1488211387.58,24512,11.44,73028.8,-3.23,-15.63,-13.01,0,*50
1488211388.81,24513,11.44,73024.0,-3.25,-15.67,-13.11,0,*52
1488211390.01,24514,11.44,73030.3,-3.23,-15.67,-13.07,0,*54
1488211391.24,24515,11.44,73034.5,-3.25,-15.67,-13.11,0,*54
1488211392.5,24516,11.44,73038.5,-3.25,-15.57,-13.07,0,*53
1488211393.7,24517,11.44,73032.0,-3.23,-15.63,-13.07,0,*53
1488211394.92,24518,11.44,73024.0,-3.23,-15.63,-13.01,0,*5A
1488211396.15,24519,11.44,73016.5,-3.25,-15.71,-13.11,0,*5F
1488211397.35,24520,11.44,73018.3,-3.23,-15.67,-13.15,0,*50
1488211398.58,24521,11.44,73032.0,-3.23,-15.81,-13.15,0,*59
1488211399.79,24522,11.44,73034.3,-3.23,-15.75,-13.19,0,*5D
1488211401.02,24523,11.44,73022.3,-3.25,-15.71,-13.11,0,*56
1488211402.23,24524,11.44,73000.5,-3.23,-15.63,-13.07,0,*53
1488211403.43,24525,11.44,72988.5,-3.23,-15.53,-12.93,0,*5D
1488211404.64,24526,11.44,72934.8,-3.23,-15.53,-12.93,0,*5E
1488211405.85,24527,11.44,72970.5,-3.23,-15.63,-12.93,0,*5C
1488211407.08,24528,11.44,72960.3,-3.23,-15.53,-13.01,0,*5A
1488211408.32,24529,11.44,72984.3,-3.21,-15.67,-13.19,0,*57
1488211409.56,24530,11.44,72992.8,-3.21,-15.75,-13.19,0,*5C
1488211410.84,24531,11.44,72992.3,-3.25,-15.81,-13.33,0,*5A
1488211412.13,24532,11.44,73014.0,-3.25,-15.85,-13.33,0,*5D
1488211413.34,24533,11.44,73012.5,-3.23,-15.75,-13.19,0,*5D
1488211414.59,24534,11.44,73030.3,-3.23,-15.85,-13.29,0,*56
1488211415.88,24535,11.44,73026.5,-3.25,-15.85,-13.37,0,*5E
1488211417.14,24536,11.44,73024.8,-3.25,-15.85,-13.23,0,*58
1488211418.37,24537,11.44,73048.3,-3.23,-15.75,-13.33,0,*51
1488211419.62,24538,11.44,73026.5,-3.23,-15.81,-13.33,0,*55
1488211420.87,24539,11.44,73024.5,-3.23,-15.81,-13.29,0,*5F
1488211422.1,24540,11.44,73032.0,-3.25,-15.95,-13.47,0,*5A
1488211423.32,24541,11.44,73032.3,-3.25,-15.95,-13.47,0,*5B
1488211424.55,24542,11.44,73018.5,-3.25,-15.95,-13.47,0,*58
1488211425.8,24543,11.44,73024.5,-3.25,-16.09,-13.47,0,*5F
1488211427.02,24544,11.44,73032.0,-3.25,-15.99,-13.47,0,*52
1488211428.25,24545,11.44,73034.8,-3.25,-15.99,-13.51,0,*54
1488211429.48,24546,11.44,73032.0,-3.23,-15.89,-13.43,0,*53
1488211430.69,24547,11.44,73040.3,-3.25,-15.99,-13.47,0,*51
1488211431.94,24548,11.44,73046.3,-3.25,-15.99,-13.37,0,*59
1488211433.14,24549,11.44,73072.5,-3.27,-15.99,-13.43,0,*59
1488211434.37,24550,11.44,73056.0,-3.27,-15.89,-13.51,0,*53
1488211435.65,24551,11.44,73040.8,-3.29,-15.85,-13.37,0,*50
1488211436.9,24552,11.44,72982.8,-3.27,-15.89,-13.37,0,*51
1488211438.16,24553,11.44,72994.8,-3.27,-15.89,-13.37,0,*50
1488211439.41,24554,11.44,73008.5,-3.23,-15.81,-13.29,0,*54
1488211440.69,24555,11.44,73010.3,-3.25,-15.85,-13.37,0,*58
1488211441.94,24556,11.44,73018.8,-3.25,-15.95,-13.37,0,*5A
1488211443.16,24557,11.44,73018.0,-3.25,-15.99,-13.47,0,*50
1488211444.38,24558,11.44,73026.5,-3.25,-15.99,-13.47,0,*5F
1488211445.64,24559,11.44,73026.0,-3.25,-15.95,-13.37,0,*55
1488211446.85,24560,11.44,73028.3,-3.25,-15.99,-13.47,0,*54
1488211448.05,24561,11.44,73028.8,-3.27,-15.99,-13.51,0,*50
1488211449.25,24562,11.44,73030.5,-3.27,-16.03,-13.43,0,*50
1488211450.52,24563,11.44,73036.5,-3.25,-16.09,-13.51,0,*5A
1488211451.77,24564,11.44,73034.5,-3.25,-15.99,-13.33,0,*53
1488211453.02,24565,11.44,73036.3,-3.27,-15.89,-13.37,0,*55
1488211454.28,24566,11.44,73028.5,-3.27,-15.85,-13.37,0,*5A
1488211455.53,24567,11.44,73040.8,-3.27,-15.89,-13.29,0,*58
1488211456.75,24568,11.44,73036.8,-3.27,-15.99,-13.37,0,*59
1488211457.95,24569,11.44,73038.8,-3.27,-15.99,-13.43,0,*5B
1488211459.17,24570,11.44,73040.8,-3.29,-16.03,-13.43,0,*5D
1488211460.41,24571,11.44,73044.0,-3.27,-16.17,-13.51,0,*54
1488211461.64,24572,11.44,73048.8,-3.27,-16.13,-13.51,0,*53
1488211462.87,24573,11.44,73046.5,-3.27,-16.17,-13.55,0,*52
1488211464.11,24574,11.44,73050.8,-3.27,-16.17,-13.51,0,*51
1488211465.31,24575,11.44,73044.3,-3.27,-16.03,-13.51,0,*55
1488211466.51,24576,11.44,73030.0,-3.27,-16.03,-13.43,0,*55
1488211467.74,24577,11.44,73042.3,-3.27,-16.03,-13.37,0,*57
1488211468.97,24578,11.44,73040.5,-3.27,-16.03,-13.29,0,*57
1488211470.22,24579,11.44,73044.8,-3.27,-16.13,-13.37,0,*58
1488211471.46,24580,11.44,73042.8,-3.27,-16.13,-13.51,0,*5E
1488211472.69,24581,11.44,73032.0,-3.27,-16.17,-13.51,0,*5B
1488211473.95,24582,11.44,73038.0,-3.29,-16.17,-13.51,0,*56
1488211475.18,24583,11.44,73056.3,-3.27,-16.17,-13.51,0,*59
1488211476.41,24584,11.44,73050.0,-3.27,-16.13,-13.43,0,*59
1488211477.64,24585,11.44,73052.3,-3.27,-16.13,-13.43,0,*58
1488211478.88,24586,11.44,73036.8,-3.27,-16.13,-13.43,0,*5B
1488211480.11,24587,11.44,73040.0,-3.27,-16.17,-13.55,0,*59
1488211481.37,24588,11.44,73046.3,-3.29,-16.13,-13.51,0,*58
1488211482.6,24589,11.44,73054.0,-3.27,-16.13,-13.51,0,*57
1488211483.86,24590,11.44,73058.8,-3.29,-16.17,-13.51,0,*55
1488211485.09,24591,11.44,73052.3,-3.27,-16.17,-13.43,0,*59
1488211486.35,24592,11.44,73054.0,-3.27,-16.13,-13.37,0,*5D
1488211487.6,24593,11.44,73046.3,-3.29,-16.17,-13.43,0,*55
1488211488.86,24594,11.44,73044.0,-3.29,-16.17,-13.43,0,*52
1488211490.11,24595,11.44,73050.3,-3.29,-16.27,-13.51,0,*53
1488211491.37,24596,11.44,73058.3,-3.29,-16.17,-13.51,0,*53
1488211492.63,24597,11.44,73054.3,-3.29,-16.27,-13.51,0,*51
1488211493.86,24598,11.44,73056.8,-3.27,-16.27,-13.55,0,*54
1488211495.09,24599,11.44,73062.8,-3.27,-16.17,-13.51,0,*52
1488211496.35,24600,11.44,73044.5,-3.29,-16.27,-13.55,0,*58
1488211497.58,24601,11.44,73038.5,-3.27,-16.27,-13.51,0,*53
1488211498.83,24602,11.44,73036.0,-3.29,-16.27,-13.43,0,*5D
1488211500.08,24603,11.44,73040.0,-3.29,-16.17,-13.43,0,*5F
1488211501.34,24604,11.44,73042.3,-3.29,-16.31,-13.51,0,*5F
1488211502.59,24605,11.44,73046.3,-3.29,-16.27,-13.43,0,*5A
1488211503.87,24606,11.44,73050.5,-3.29,-16.27,-13.37,0,*5A
1488211505.12,24607,11.44,73052.5,-3.29,-16.27,-13.51,0,*5B
1488211506.38,24608,11.44,73048.3,-3.29,-16.17,-13.43,0,*54
1488211507.66,24609,11.44,73050.3,-3.29,-16.17,-13.37,0,*56
1488211508.94,24610,11.44,73058.5,-3.29,-16.17,-13.29,0,*51
1488211510.2,24611,11.44,73044.3,-3.29,-16.17,-13.43,0,*5C
1488211511.49,24612,11.44,73052.8,-3.33,-16.17,-13.33,0,*53
1488211512.75,24613,11.44,73066.5,-3.33,-16.17,-13.43,0,*55
1488211514.03,24614,11.44,73066.3,-3.29,-16.17,-13.29,0,*55
1488211515.31,24615,11.44,73064.8,-3.29,-16.13,-13.29,0,*50
1488211516.57,24616,11.44,73068.3,-3.29,-15.89,-13.11,0,*58
1488211517.85,24617,11.44,73052.3,-3.29,-15.89,-13.01,0,*58
1488211519.13,24618,11.44,73056.5,-3.29,-15.85,-13.01,0,*5B
1488211520.41,24619,11.44,73060.8,-3.29,-15.89,-13.01,0,*56
1488211521.63,24620,11.44,73062.8,-3.29,-15.99,-13.23,0,*5D
1488211522.86,24621,11.44,73068.3,-3.29,-15.99,-13.23,0,*5C
1488211524.14,24622,11.44,73062.5,-3.29,-16.13,-13.29,0,*54
1488211525.34,24623,11.44,73062.0,-3.27,-15.99,-13.23,0,*50
1488211526.57,24624,11.44,73056.5,-3.29,-16.03,-13.23,0,*59
1488211527.8,24625,11.44,73054.5,-3.29,-15.99,-13.23,0,*58
1488211529.03,24626,11.44,73048.3,-3.27,-16.03,-13.29,0,*5F
1488211530.23,24627,11.44,73044.8,-3.27,-15.99,-13.23,0,*54
1488211531.46,24628,11.44,73036.8,-3.29,-16.03,-13.23,0,*55
1488211532.74,24629,11.44,73030.8,-3.29,-16.17,-13.29,0,*5B
1488211533.99,24630,11.44,73016.3,-3.29,-16.31,-13.43,0,*5B
1488211535.24,24631,11.44,73018.0,-3.29,-16.27,-13.51,0,*5E
1488211536.47,24632,11.44,73028.8,-3.27,-16.31,-13.51,0,*54
1488211537.72,24633,11.44,73024.8,-3.29,-16.31,-13.51,0,*5B
1488211538.98,24634,11.44,73018.0,-3.29,-16.31,-13.55,0,*58
1488211540.23,24635,11.44,73008.8,-3.29,-16.31,-13.55,0,*59
1488211541.44,24636,11.44,73006.0,-3.27,-16.41,-13.55,0,*53
1488211542.67,24637,11.44,73010.0,-3.29,-16.41,-13.51,0,*58
1488211543.91,24638,11.38,73008.8,-3.33,-16.45,-13.55,0,*5C
1488211545.14,24639,11.44,73016.3,-3.29,-16.41,-13.65,0,*51
1488211546.38,24640,11.44,73016.3,-3.29,-16.41,-13.55,0,*5C
1488211547.61,24641,11.44,73014.0,-3.29,-16.41,-13.65,0,*5E
1488211548.85,24642,11.44,73008.0,-3.29,-16.41,-13.51,0,*5A
1488211550.09,24643,11.44,73014.0,-3.29,-16.41,-13.55,0,*5F
1488211551.32,24644,11.44,73016.0,-3.33,-16.45,-13.55,0,*57
1488211552.55,24645,11.44,73026.5,-3.33,-16.45,-13.47,0,*55
1488211553.79,24646,11.44,73032.8,-3.33,-16.45,-13.55,0,*55
1488211555.02,24647,11.44,73038.5,-3.33,-16.45,-13.55,0,*54
1488211556.25,24648,11.44,73042.0,-3.33,-16.45,-13.47,0,*58
1488211557.49,24649,11.44,73040.3,-3.33,-16.37,-13.55,0,*5F
1488211558.72,24650,11.44,73044.0,-3.33,-16.37,-13.47,0,*54
1488211559.95,24651,11.38,73042.3,-3.33,-16.37,-13.55,0,*56
1488211561.16,24652,11.44,73042.0,-3.35,-16.37,-13.47,0,*50
1488211562.39,24653,11.44,73040.0,-3.33,-16.37,-13.47,0,*57
1488211563.6,24654,11.44,73032.3,-3.35,-16.37,-13.47,0,*56
1488211564.82,24655,11.44,73032.3,-3.33,-16.37,-13.47,0,*51
1488211566.06,24656,11.38,73038.3,-3.33,-16.37,-13.47,0,*52
1488211567.34,24657,11.44,73046.0,-3.33,-16.31,-13.33,0,*56
1488211568.59,24658,11.44,73042.5,-3.33,-16.31,-13.43,0,*5E
1488211569.88,24659,11.44,73040.8,-3.33,-16.23,-13.33,0,*5B
1488211571.16,24660,11.44,73022.8,-3.33,-16.23,-13.33,0,*51
1488211572.37,24661,11.44,73028.3,-3.35,-16.37,-13.43,0,*54
1488211573.65,24662,11.44,73034.3,-3.33,-16.31,-13.33,0,*50
1488211574.89,24663,11.44,73040.3,-3.35,-16.23,-13.43,0,*53
1488211576.14,24664,11.44,73038.3,-3.33,-16.23,-13.43,0,*52
1488211577.4,24665,11.44,73034.5,-3.33,-16.17,-13.43,0,*54
1488211578.69,24666,11.38,73038.0,-3.33,-16.23,-13.33,0,*57
1488211579.97,24667,11.38,73042.3,-3.33,-16.23,-13.33,0,*56
1488211581.26,24668,11.38,73042.0,-3.33,-16.31,-13.33,0,*5A
1488211582.54,24669,11.44,73048.5,-3.33,-16.31,-13.33,0,*5B
1488211583.8,24670,11.44,73048.0,-3.35,-16.31,-13.33,0,*55
1488211585.03,24671,11.44,73048.5,-3.35,-16.23,-13.43,0,*50
1488211586.26,24672,11.44,73044.0,-3.35,-16.23,-13.43,0,*53
1488211587.51,24673,11.44,73038.3,-3.33,-16.31,-13.43,0,*57
1488211588.77,24674,11.44,73036.5,-3.33,-16.31,-13.43,0,*50
1488211590.05,24675,11.38,73038.8,-3.33,-16.31,-13.33,0,*56
1488211591.29,24676,11.38,73032.5,-3.35,-16.37,-13.33,0,*55
1488211592.57,24677,11.38,73034.3,-3.33,-16.31,-13.33,0,*54
1488211593.85,24678,11.38,73018.5,-3.33,-16.31,-13.33,0,*5B
1488211595.09,24679,11.38,73026.0,-3.35,-16.37,-13.33,0,*5A
1488211596.33,24680,11.38,73026.5,-3.33,-16.37,-13.43,0,*5D
1488211597.59,24681,11.38,73024.0,-3.33,-16.37,-13.33,0,*5B
1488211598.82,24682,11.38,73032.0,-3.33,-16.37,-13.43,0,*5F
1488211600.11,24683,11.44,73040.0,-3.33,-16.23,-13.33,0,*5C
1488211601.38,24684,11.44,73032.8,-3.33,-16.17,-13.19,0,*54
1488211602.59,24685,11.38,73008.0,-3.35,-16.03,-13.15,0,*5A
1488211603.84,24686,11.38,72996.0,-3.33,-16.23,-13.43,0,*5E
1488211605.07,24687,11.38,73016.0,-3.33,-16.37,-13.47,0,*5E
1488211606.33,24688,11.44,73034.5,-3.33,-16.51,-13.55,0,*52
1488211607.56,24689,11.44,73014.5,-3.33,-16.45,-13.47,0,*55
1488211608.8,24690,11.44,73018.5,-3.33,-16.45,-13.55,0,*5E
1488211610.06,24691,11.38,73006.3,-3.33,-16.45,-13.61,0,*58
1488211611.32,24692,11.38,73012.5,-3.35,-16.51,-13.61,0,*58
1488211612.56,24693,11.44,73018.0,-3.33,-16.45,-13.55,0,*5D
1488211613.79,24694,11.44,73016.5,-3.35,-16.45,-13.61,0,*5B
1488211615.0,24695,11.38,73018.0,-3.35,-16.45,-13.47,0,*5E
1488211616.23,24696,11.44,73020.0,-3.33,-16.37,-13.47,0,*5E
1488211617.44,24697,11.44,73022.8,-3.35,-16.37,-13.43,0,*5D
1488211618.65,24698,11.38,73020.8,-3.35,-16.37,-13.43,0,*52
1488211619.85,24699,11.38,73012.0,-3.35,-16.37,-13.43,0,*53
1488211621.06,24700,11.44,73016.0,-3.35,-16.45,-13.47,0,*53
1488211622.29,24701,11.38,73018.8,-3.33,-16.37,-13.43,0,*55
1488211623.5,24702,11.38,73024.5,-3.35,-16.37,-13.43,0,*50
1488211624.74,24703,11.38,73028.3,-3.35,-16.37,-13.33,0,*56
1488211625.95,24704,11.44,73032.8,-3.35,-16.37,-13.43,0,*56
1488211627.16,24705,11.44,73032.0,-3.35,-16.37,-13.47,0,*53
1488211628.36,24706,11.38,73034.5,-3.35,-16.45,-13.47,0,*55
1488211629.57,24707,11.38,73026.3,-3.35,-16.45,-13.47,0,*54
1488211630.8,24708,11.38,73030.3,-3.35,-16.45,-13.61,0,*5F
1488211632.04,24709,11.44,73036.5,-3.35,-16.51,-13.55,0,*5C
1488211633.24,24710,11.38,73038.3,-3.35,-16.45,-13.47,0,*52
1488211634.45,24711,11.38,73032.5,-3.35,-16.45,-13.47,0,*53
1488211635.66,24712,11.44,73032.0,-3.35,-16.45,-13.55,0,*53
1488211636.95,24713,11.38,73036.8,-3.37,-16.51,-13.61,0,*52
1488211638.18,24714,11.38,73040.0,-3.35,-16.45,-13.61,0,*52
1488211639.39,24715,11.44,73034.5,-3.35,-16.45,-13.47,0,*57
1488211640.63,24716,11.38,73028.5,-3.35,-16.51,-13.55,0,*52
1488211641.91,24717,11.38,73044.5,-3.37,-16.51,-13.61,0,*56
1488211643.2,24718,11.38,73044.3,-3.37,-16.51,-13.61,0,*59
1488211644.45,24719,11.38,73042.5,-3.39,-16.51,-13.61,0,*56
1488211645.72,24720,11.38,73040.5,-3.37,-16.55,-13.61,0,*56
1488211646.98,24721,11.38,73032.0,-3.37,-16.55,-13.61,0,*57
1488211648.25,24722,11.38,73030.8,-3.37,-16.55,-13.61,0,*54
1488211649.53,24723,11.38,73030.5,-3.37,-16.51,-13.61,0,*51
1488211650.82,24724,11.38,73032.0,-3.37,-16.51,-13.61,0,*56
1488211652.11,24725,11.44,73028.5,-3.37,-16.51,-13.61,0,*57
1488211653.37,24726,11.38,73028.0,-3.37,-16.55,-13.61,0,*50
1488211654.63,24727,11.38,73034.3,-3.37,-16.51,-13.65,0,*51
1488211655.89,24728,11.38,73026.0,-3.37,-16.55,-13.61,0,*5E
1488211657.13,24729,11.38,73038.0,-3.37,-16.55,-13.65,0,*5B
1488211658.37,24730,11.38,73028.3,-3.37,-16.55,-13.65,0,*53
1488211659.6,24731,11.38,73030.3,-3.37,-16.59,-13.73,0,*59
1488211660.81,24732,11.44,73028.8,-3.39,-16.59,-13.73,0,*54
1488211662.04,24733,11.38,73008.3,-3.37,-16.59,-13.65,0,*5C
1488211663.27,24734,11.38,72998.3,-3.39,-16.51,-13.65,0,*5D
1488211664.5,24735,11.38,73018.8,-3.37,-16.55,-13.73,0,*51
1488211665.71,24736,11.38,73018.3,-3.39,-16.55,-13.65,0,*5B
1488211666.98,24737,11.38,73018.8,-3.37,-16.59,-13.61,0,*5C
1488211668.21,24738,11.38,73024.3,-3.35,-16.51,-13.69,0,*51
1488211669.44,24739,11.38,73032.3,-3.37,-16.55,-13.65,0,*5A
1488211670.67,24740,11.38,73046.5,-3.39,-16.51,-13.65,0,*5E
1488211671.93,24741,11.38,73054.5,-3.37,-16.51,-13.65,0,*51
1488211673.16,24742,11.44,73054.5,-3.37,-16.55,-13.65,0,*56
1488211674.4,24743,11.38,73040.0,-3.37,-16.55,-13.65,0,*57
1488211675.64,24744,11.38,73040.8,-3.37,-16.55,-13.73,0,*57
1488211676.87,24745,11.38,73046.0,-3.37,-16.59,-13.73,0,*5A
1488211678.13,24746,11.38,73048.8,-3.37,-16.69,-13.73,0,*5A
1488211679.36,24747,11.38,73046.0,-3.39,-16.69,-13.93,0,*5B
1488211680.62,24748,11.38,73042.8,-3.37,-16.59,-13.83,0,*58
1488211681.9,24749,11.38,73020.3,-3.37,-16.69,-13.83,0,*5A
1488211683.15,24750,11.44,73030.0,-3.39,-16.69,-13.83,0,*5C
1488211684.38,24751,11.38,73032.5,-3.39,-16.75,-13.83,0,*50
1488211685.61,24752,11.38,73018.5,-3.37,-16.75,-13.93,0,*5C
1488211686.81,24753,11.38,73012.5,-3.39,-16.83,-13.93,0,*5A
1488211688.05,24754,11.38,73012.8,-3.39,-16.89,-13.97,0,*53
1488211689.28,24755,11.38,73020.5,-3.39,-16.89,-13.97,0,*52
1488211690.51,24756,11.38,73024.8,-3.39,-16.89,-14.05,0,*5D
1488211691.75,24757,11.38,73028.8,-3.39,-16.83,-13.97,0,*5A
1488211692.98,24758,11.38,73028.8,-3.39,-16.97,-14.05,0,*5C
1488211694.21,24759,11.38,73028.5,-3.39,-16.89,-14.05,0,*52
1488211695.43,24760,11.38,73032.8,-3.43,-16.93,-14.11,0,*5B
1488211696.65,24761,11.38,73030.8,-3.43,-16.93,-14.11,0,*5A